Overview Statistics Trail Chart Weather Telemetry Raw packets
 

This is the latest recevied weather packets stored in our database for station/object IONIA-WX. If no packets are shown the sender has not sent any weather packets the latest 10 day(s).

<< 31 32 33 34 35 36 37 >>
Time Temp. Humidity Pressure Rain* Wind** Luminosity Snow
1787851817 23.89° C 66% 984.7 hPa 0 mm - - -
1787850919 23.89° C 66% 984.7 hPa 0 mm - - -
1787850021 23.33° C 66% 984.7 hPa 0 mm - - -
1787849118 23.33° C 70% 984.9 hPa 0 mm - - -
1787848220 23.33° C 70% 984.9 hPa 0 mm - - -
1787847317 22.78° C 70% 984.9 hPa 0 mm - - -
1787846421 22.22° C 70% 984.9 hPa 0 mm - - -
1787845518 22.78° C 71% 985.3 hPa 0 mm - - -
1787844617 22.22° C 71% 985.3 hPa 0 mm - - -
1787843717 22.22° C 71% 985.3 hPa 0 mm - - -
1787842819 21.67° C 71% 985.3 hPa 0 mm - - -
1787841918 21.67° C 79% 983.9 hPa 0 mm - - -
1787841017 21.67° C 78% 984.5 hPa 0 mm - - -
1787840117 21.11° C 78% 984.5 hPa 0 mm - - -
1787839217 20.56° C 77% 984.7 hPa 0 mm - - -
1787838318 20° C 85% 983.8 hPa 0 mm - - -
1787837418 19.44° C 85% 983.8 hPa 0 mm - - -
1787836517 18.89° C 85% 983.8 hPa 0 mm - - -
1787835619 18.33° C 85% 983.8 hPa 0 mm - - -
1787834717 17.78° C 93% 983.6 hPa 0 mm - - -
1787833817 17.78° C 93% 983.7 hPa 0 mm - - -
1787832917 16.67° C 93% 983.7 hPa 0 mm - - -
1787832021 16.11° C 93% 983.7 hPa 0 mm - - -
1787831117 15.56° C 93% 982.6 hPa 0 mm - - -
1787830217 15.56° C 93% 982.6 hPa 0 mm - - -

* Rain latest hour (hover to see other rain measurements)
** Current wind speed in m/s (hover to see current wind gust speed)